SCP
1 1 1 1 1 2 2 2 2 2 2 1 1 1 1 1 1 1 1 1 1 1 0 0 0 0 0 0 0 0 0 0 0 0 0 0 0 0 0 0 0 0 0
1 1 1 1 1 2 2 2 2 2 2 1 1 1 1 1 1 1 1 1 1 1 0 0 0 0 0 0 0 0 0 0 0 0 0 0 0 0 0 0 0 0 0
1 1 1 1 1 2 2 2 2 2 2 1 1 1 1 1 1 1 1 1 1 1 0 0 0 0 0 0 0 0 0 0 0 0 0 0 0 0 0 0 0 0 0
1 1 1 1 1 1 2 2 2 2 2 1 1 1 1 1 1 1 1 1 1 1 0 0 0 0 0 0 0 0 0 0 0 0 0 0 0 0 0 0 0 0 0
1 1 1 1 1 1 1 2 2 2 2 1 1 1 1 1 1 1 1 1 1 1 1 1 1 1 1 0 0 0 0 0 0 0 0 0 0 0 0 0 0 0 0
1 1 1 1 1 1 1 1 2 2 2 1 1 1 1 1 1 1 1 1 1 1 1 1 1 1 1 1 1 1 0 0 0 0 0 0 0 0 0 0 0 0 0
1 1 1 1 1 1 1 1 2 2 1 1 1 1 1 1 1 1 1 1 1 1 1 1 1 1 1 1 1 1 1 0 0 0 0 0 0 0 0 0 0 0 0
1 1 1 1 1 1 1 1 1 1 1 1 1 1 1 1 1 1 1 1 1 1 1 1 1 1 1 1 1 1 1 1 1 0 0 0 0 0 0 0 0 0 0
1 1 1 1 1 1 1 1 1 1 1 1 1 1 1 1 1 1 1 1 0 0 1 1 1 1 1 1 1 1 1 1 1 1 1 0 0 0 0 0 0 0 0
1 1 1 1 1 1 1 1 1 1 1 1 1 1 1 1 1 1 1 1 0 0 1 1 1 1 1 1 1 1 0 1 1 1 1 1 1 0 0 0 0 0 0
1 1 1 1 1 1 1 1 1 1 1 1 1 1 1 1 1 1 1 1 0 1 1 1 1 1 1 1 1 0 0 0 1 1 1 1 1 0 0 0 0 0 0
1 1 1 1 1 1 1 1 1 1 1 1 1 1 1 1 1 1 1 1 1 1 1 1 1 0 0 0 0 0 0 0 0 0 1 1 1 0 0 0 0 0 0
1 1 1 1 1 1 1 1 1 1 1 1 1 1 1 1 1 1 1 1 0 0 0 0 0 0 0 0 0 0 0 0 0 0 0 0 0 0 0 0 0 0 0
1 1 1 1 1 1 1 1 1 1 1 1 1 1 1 1 1 1 1 0 0 0 0 0 0 0 0 0 0 0 0 0 0 0 0 0 0 0 0 0 0 0 0
1 1 1 1 1 1 1 1 1 1 1 1 1 1 1 1 1 1 1 0 0 0 0 0 0 0 0 0 0 0 0 0 0 0 0 0 0 0 0 0 0 0 0
1 1 1 1 1 1 1 1 1 1 1 1 1 1 1 1 0 0 0 0 0 0 0 0 0 0 0 0 0 0 0 0 0 0 0 0 0 0 0 0 0 0 0
1 1 1 1 1 1 1 1 1 0 0 0 0 1 1 0 0 0 0 0 0 0 0 0 0 0 0 0 0 0 0 0 0 0 0 0 0 0 0 0 0 0 0
1 1 1 1 1 1 1 1 1 0 0 0 0 0 0 0 1 0 0 1 0 0 0 0 0 0 0 0 0 0 0 0 0 0 0 0 0 0 0 0 0 0 0
1 1 1 1 1 1 1 1 1 0 0 0 0 0 0 0 1 1 1 1 0 0 0 0 0 0 0 0 0 0 0 0 0 0 0 0 0 0 0 0 0 0 0
1 1 1 1 1 1 1 1 1 0 0 0 0 0 0 0 0 0 1 0 0 0 0 0 0 0 0 0 0 0 0 0 0 0 0 0 0 0 0 0 0 0 0
1 1 1 1 1 1 1 1 1 0 0 0 0 0 0 0 0 0 0 0 0 0 0 0 0 0 0 0 0 0 0 0 0 0 0 0 0 0 0 0 0 0 0
1 1 1 1 1 1 1 1 1 1 0 0 0 0 0 0 0 0 0 0 0 0 0 0 0 0 0 0 0 0 0 0 0 0 0 0 0 0 0 0 0 0 0
1 1 1 1 1 1 1 1 1 1 0 0 0 0 0 0 0 0 0 0 0 0 0 0 0 0 0 0 0 0 0 0 0 0 0 0 0 0 0 0 0 0 0
1 1 1 1 1 1 1 1 1 1 0 0 0 0 0 0 0 0 0 0 0 0 0 0 0 0 0 0 0 0 0 0 0 0 0 0 0 0 0 0 0 0 0
1 1 1 1 1 1 1 1 1 0 0 0 0 0 0 0 0 0 0 0 0 0 0 0 0 0 0 0 0 0 0 0 0 0 0 0 0 0 0 0 0 0 0
1 1 1 1 1 1 1 1 1 0 0 0 0 0 0 0 0 0 0 0 0 0 0 0 0 0 0 0 0 0 0 0 0 0 0 0 0 0 0 0 0 0 0
Wind_Speed
9 9 8 8 8 7 6 5 4 4 2 1 1 1 1 1 1 1 1 0 0 0 1 1 1 0 0 0 0 0 0 0 0 1 1 0 1 2 2 2 2 2 3
10 9 8 8 8 7 6 5 4 4 2 1 1 1 1 1 1 1 1 1 0 0 0 1 0 0 0 0 0 0 0 0 0 0 0 0 1 1 1 2 2 2 1
11 11 9 8 8 7 6 5 4 4 2 1 1 0 1 1 1 1 1 0 0 0 1 1 0 0 0 0 0 0 0 1 1 1 0 1 1 1 1 1 2 2 1
10 11 10 8 7 7 7 6 5 4 2 2 1 1 1 1 0 0 1 1 0 0 0 1 0 1 1 1 0 1 1 1 1 1 1 1 2 1 1 1 1 2 2
11 10 9 8 7 7 7 6 5 4 3 2 2 1 1 0 0 0 1 1 1 1 1 1 0 0 1 1 1 2 2 1 1 1 1 1 1 1 1 1 1 1 1
11 9 8 8 7 6 6 6 5 4 2 2 2 2 1 0 0 0 0 1 1 1 2 1 1 1 1 1 1 1 1 1 2 1 1 1 1 1 1 2 2 1 1
9 9 9 7 7 7 6 6 6 4 3 3 2 2 1 1 0 0 0 1 1 2 2 2 1 1 1 1 1 1 1 1 1 1 1 1 1 0 0 1 1 1 1
9 9 8 7 7 7 6 6 5 4 3 3 3 2 1 1 0 0 1 1 1 1 1 1 1 1 1 1 1 1 1 1 1 1 1 1 1 0 0 1 1 1 1
8 8 8 8 7 7 6 6 5 4 3 3 3 2 2 1 1 1 0 0 0 1 1 1 1 1 1 1 1 0 0 1 0 1 1 1 1 1 0 0 1 1 2
6 6 7 7 7 6 6 6 5 4 3 3 2 2 1 1 1 1 1 0 1 1 1 1 1 1 1 1 1 0 0 1 0 0 0 0 1 1 1 0 0 0 1
5 5 6 7 7 7 6 6 5 4 3 3 3 2 1 1 1 1 0 0 1 0 0 0 0 0 0 1 1 1 0 0 0 0 0 0 0 1 1 1 0 0 0
6 6 7 6 5 6 6 5 4 4 3 3 3 2 1 1 1 0 0 0 0 0 0 0 0 0 0 0 1 1 1 1 0 0 0 0 0 0 1 1 1 1 1
5 6 6 6 4 4 4 5 4 3 3 3 3 3 1 1 0 0 0 0 0 0 0 0 0 0 1 1 1 1 2 1 1 1 0 1 0 1 1 1 1 1 1
5 5 5 5 4 4 4 3 3 3 3 3 3 3 2 1 0 0 0 0 0 0 0 1 1 0 1 1 1 2 2 2 1 1 1 1 0 1 1 1 1 1 1
4 4 5 5 4 4 4 3 3 3 3 3 3 2 1 1 1 0 0 0 1 1 0 0 1 1 1 2 3 3 2 2 2 2 1 1 1 1 1 1 1 1 1
3 4 5 5 4 3 3 3 3 2 2 2 2 2 1 1 1 1 0 1 1 1 1 1 0 1 1 2 3 3 3 2 2 2 2 2 2 2 2 2 2 2 2
3 3 3 3 3 3 3 2 2 2 1 1 2 2 1 1 1 0 1 0 1 1 1 1 0 1 2 3 3 4 3 2 2 2 2 2 1 1 1 2 3 3 4
3 3 3 3 3 3 3 3 2 1 1 1 1 1 1 0 1 1 0 0 0 1 1 1 1 0 1 1 2 5 2 2 2 2 2 1 1 1 1 2 2 2 2
4 3 2 3 3 3 3 3 2 2 1 1 1 1 1 0 0 0 0 0 1 1 1 1 1 0 1 0 2 3 3 2 2 2 1 1 0 1 1 2 2 2 2
4 3 3 4 3 3 3 3 2 1 1 1 1 1 1 0 1 1 1 1 1 2 1 1 1 0 1 1 1 2 2 2 2 1 1 1 0 0 1 2 2 3 3
4 4 3 3 3 3 3 2 2 1 1 1 2 2 1 0 0 0 1 1 2 2 1 1 1 1 2 2 0 1 2 3 3 2 1 0 1 2 3 3 3 4 3
3 3 3 3 3 3 2 2 2 1 1 2 2 3 2 2 1 0 1 2 2 2 2 2 2 1 2 2 2 1 2 3 3 2 2 2 2 3 4 3 4 4 4
2 2 3 3 3 2 2 2 1 1 1 2 2 2 2 2 1 1 2 2 2 2 2 1 1 1 1 2 2 2 2 3 2 3 4 4 4 4 3 4 4 3 2
2 2 2 2 2 2 2 2 1 1 1 1 1 1 1 1 1 1 1 1 1 2 1 1 1 0 1 1 1 1 2 3 2 2 3 3 4 4 4 2 2 2 2
1 1 1 1 1 2 2 2 2 1 0 1 1 2 2 1 0 1 1 1 0 1 1 1 1 1 0 0 0 1 1 1 1 2 2 2 2 2 2 1 1 1 1
1 1 0 1 1 1 1 1 1 1 1 2 2 2 2 1 1 1 0 1 1 3 3 1 0 1 2 2 1 1 1 2 2 1 2 2 2 2 2 2 2 1 1
Wind_Direction
148 137 136 134 127 123 123 125 122 109 124 140 156 163 187 188 134 129 82 105 347 319 314 0 55 314 82 38 75 104 141 128 145 113 40 114 130 113 116 124 137 149 162
140 131 136 132 129 129 130 128 123 121 142 134 167 187 177 182 154 101 74 50 341 308 196 66 352 242 117 77 11 356 58 259 91 28 187 38 76 104 127 120 124 128 143
148 146 154 145 141 138 139 138 131 135 143 129 168 107 70 6 66 113 113 74 290 302 342 94 8 300 142 125 214 330 296 303 5 34 39 102 85 108 82 91 105 128 108
154 157 154 148 144 144 142 134 132 133 137 153 170 161 147 191 239 143 128 153 226 2 38 60 71 342 15 64 316 70 320 329 320 347 50 82 105 114 112 92 108 130 122
154 156 149 149 147 142 141 138 132 138 153 171 168 185 159 190 98 94 110 124 96 65 72 87 97 41 18 36 6 45 19 11 357 353 21 64 72 85 131 144 149 135 138
147 144 140 142 140 136 133 133 134 144 158 176 172 180 183 204 152 77 79 95 78 45 33 61 70 63 34 41 44 46 54 25 12 15 22 53 79 115 131 145 157 147 146
142 141 146 151 144 141 136 138 138 147 155 162 171 179 173 179 166 25 66 36 59 52 35 27 45 23 38 59 73 62 45 51 18 6 4 16 34 50 79 123 143 125 115
147 148 153 151 146 141 136 136 137 145 148 153 162 164 163 175 106 18 15 62 58 73 68 28 45 29 36 46 63 69 77 68 32 1 8 7 355 27 113 156 147 152 131
145 150 152 144 140 140 138 139 138 142 148 146 148 149 158 163 132 126 66 58 80 104 102 79 52 14 25 34 86 69 94 90 59 333 19 17 332 349 330 290 162 171 172
134 139 136 134 133 134 135 135 136 136 137 142 149 136 144 174 146 107 117 37 39 24 91 76 67 29 19 7 17 357 319 113 156 239 37 68 332 345 342 323 308 197 176
123 122 121 121 125 127 133 134 134 130 138 138 121 101 121 130 115 99 66 9 10 13 132 129 89 28 15 347 337 311 304 185 299 285 164 188 261 349 338 320 280 259 195
119 119 110 108 118 128 132 129 129 130 124 117 116 108 83 76 75 63 277 267 266 293 359 57 121 265 36 340 306 297 298 253 231 266 298 307 299 354 320 313 276 250 215
108 108 106 102 95 100 117 122 125 123 116 115 123 124 114 74 11 330 281 250 244 327 203 265 297 296 343 316 289 294 292 289 269 251 253 262 283 309 303 293 279 268 270
93 106 107 101 96 88 93 90 103 105 109 120 125 129 139 145 143 300 347 8 231 263 318 307 290 305 353 342 345 320 295 287 270 259 251 249 237 266 262 263 272 270 272
97 103 107 107 106 106 105 100 85 90 102 115 118 121 144 151 157 173 8 320 274 269 294 294 325 328 31 18 0 320 303 305 290 267 246 227 212 209 250 266 282 282 265
94 101 106 115 120 114 107 97 86 74 89 107 121 118 127 126 131 155 167 270 309 321 307 284 334 357 32 23 13 349 310 296 283 273 268 247 216 206 208 255 279 264 255
90 104 113 118 129 132 121 115 106 92 92 119 121 130 135 141 153 157 106 30 292 295 291 293 336 67 55 25 4 338 305 294 287 279 270 270 276 221 228 240 251 260 257
86 98 120 130 140 130 131 139 135 129 120 108 118 120 145 153 151 149 104 321 267 276 277 284 291 119 92 41 356 332 292 295 299 296 293 288 310 339 349 304 279 264 268
81 85 114 126 133 143 142 144 139 143 145 76 107 131 161 186 255 271 293 274 267 274 284 309 306 290 125 60 351 330 294 288 297 296 324 318 122 118 301 284 282 285 294
103 112 120 122 128 138 139 140 133 122 74 30 12 37 71 26 11 345 314 289 267 258 254 254 232 186 176 162 351 327 298 300 294 292 306 14 347 222 288 270 268 276 287
108 116 121 119 119 122 127 128 117 94 65 50 18 18 40 333 315 358 300 279 269 261 237 229 228 184 161 170 206 314 297 306 299 288 279 286 201 270 281 265 251 254 271
107 123 120 109 109 117 131 132 112 61 39 38 27 23 10 337 41 10 285 264 256 252 241 220 213 177 158 163 190 243 286 300 307 314 334 345 319 292 279 266 262 269 277
100 107 120 118 118 127 127 117 106 75 49 42 35 19 355 353 355 274 265 261 248 244 244 222 204 174 158 153 171 210 257 292 305 322 347 339 325 308 282 262 257 247 245
108 104 118 121 127 138 133 123 125 119 80 50 36 339 304 291 299 287 283 282 302 305 305 301 274 182 148 123 148 229 242 257 275 297 317 305 290 287 278 274 257 235 233
67 95 109 129 135 135 142 148 140 133 237 285 287 275 271 267 272 277 290 289 67 220 275 323 333 315 217 150 203 262 279 290 310 299 281 292 292 288 287 283 263 251 251
73 83 135 143 132 146 157 146 151 168 219 249 261 269 272 262 242 241 165 75 153 150 143 128 109 102 118 127 103 9 309 294 313 295 270 274 282 288 289 292 292 287 276